{"data":{"norad_id":65976,"intl_designator":"2025-230C","name":"SDA_1666","alt_names":[],"object_type":"PAYLOAD","status":"ACTIVE","operator":null,"country":"US","launch_date":"2025-10-15","launch_site_code":"AFWTR","launch_vehicle":null,"mission":null,"orbit_class":"UNKNOWN","rcs_meters":null,"size_class":null,"mass_kg":null,"dimensions":null,"purposes":[],"wikipedia_slug":null,"has_3d_model":false,"image_url":null,"decayed_at":null,"tle_current":{"epoch":"2026-09-20T14:35:27.672288Z","epoch_age_seconds":131108,"freshness":"FRESH","line1":"1 65976U 25230C   26263.60795917  .00000118  00000+0  99089-4 0  9996","line2":"2 65976  81.2983 123.8955 0001158  48.5118 311.6137 13.81922566 46972","mean_motion":13.81922566,"eccentricity":0.0001158,"inclination_deg":81.2983,"raan_deg":123.8955,"arg_perigee_deg":48.5118,"mean_anomaly_deg":311.6137,"bstar":9.9089e-5,"rev_number":4697,"period_min":104.20265472385,"perigee_km":956.2261229988,"apogee_km":957.92495822321,"semimajor_km":7335.212540611,"source":"CELESTRAK","updated_at":"2026-09-21T09:00:15.686297Z"}}}